Regional Weather Roundup
Issued by NWS Jackson, KY

Home | Current Version | Previous Version | Text Only | Print | Product List | Glossary On
Versions: 1 2 3 4 5 6 7 8 9 10 11 12 13 14 15 16 17 18 19 20 21 22 23 24 25 26 27 28 29 30 31 32 33 34 35 36 37 38 39 40 41 42 43 44 45 46 47 48 49 50
000
ASUS43 KJKL 051110
RWRJKL

EAST KENTUCKY HOURLY WEATHER ROUNDUP
NATIONAL WEATHER SERVICE JACKSON KY
600 AM EST THU MAR 05 2015

NOTE: "FAIR" INDICATES FEW OR NO CLOUDS BELOW 12,000 FEET WITH
NO SIGNIFICANT WEATHER AND/OR OBSTRUCTIONS TO VISIBILITY.

* THESE REPORTS ARE NOT UNDER NWS QUALITY CONTROL AND MAY NOT
  REPORT WEATHER SUCH AS PRECIPITATION AND FOG.

KYZ079-080-083-085-087-088-110-112-115-119-120-051200
...EASTERN KENTUCKY...

CITY           SKY/WX    TMP DP  RH WIND       PRES   REMARKS
JACKSON        SNOW      25  22  88 VRB6      30.12R VSB 1/4 WCI  18
LONDON         LGT SNOW  26  21  81 N13       30.11R WCI  15
SOMERSET*      FLURRIES  23  21  93 N9G23     30.17R WCI  13
MONTICELLO*    LGT SNOW  25  23  91 N10G17    30.16R FOG     WCI  15
MIDDLESBORO*   LGT RAIN  33  32  95 NW3       30.05S
HAZARD APT*    LGT SNOW  28  28 100 NE7       30.11R VSB 3/4 WCI  21
BLACK MTN*       N/A     25  25 100 N5          N/A  WCI  19
PIKEVILLE APT* LGT SNOW  25  23  93 N10       30.10R WCI  15
BIG SANDY*     LGT SNOW  25  24  93 N7        30.14R WCI  18
MOREHEAD APT*  LGT SNOW  19  18  93 N12G17    30.22R WCI   7
$$

KYZ035-036-041-042-044-050-067-078-099-051200
...CENTRAL KENTUCKY...

CITY           SKY/WX    TMP DP  RH WIND       PRES   REMARKS
MT STERLING*   LGT SNOW  19  18  93 NE10G20   30.21R WCI   8
FLEMING/MASON* LGT SNOW  18  14  86 NE6       30.25R WCI   9
DANVILLE*      LGT SNOW  21  19  93 N13       30.21R WCI   9
RICHMOND*      CLOUDY    21  18  86 N8        30.19R WCI  12
LEXINGTON      CLOUDY    19  16  88 N13       30.22R FOG     WCI   6
FRANKFORT      SNOW      18  14  84 N15G22    30.24R VSB 1/2 WCI   4
$$

KYZ091>093-OHZ055-061-077-WVZ005-015-034-035-042-051200
...SOUTHERN OHIO/WEST VIRGINIA...

CITY           SKY/WX    TMP DP  RH WIND       PRES   REMARKS
COVINGTON      LGT SNOW  19  10  68 N13       30.26S FOG     WCI   7
COLUMBUS       CLOUDY    18   5  57 N15       30.26R WCI   4
DAYTON         CLOUDY    18   6  59 N17       30.27R WCI   3
WILMINGTON     CLOUDY    17   5  59 N12G21    30.24R WCI   4
HUNTINGTON     LGT SNOW  21  19  92 N8        30.20R FOG     WCI  11
CHARLESTON     LGT SNOW  26  22  84 N7        30.15R FOG     WCI  18
PINEVILLE*     LGT SNOW  33  33  99 MISG      30.10R
BECKLEY        LGT SNOW  28  26  92 N8        30.04R FOG     WCI  20
BLUEFIELD      FRZ RAIN  32  28  85 NW6       30.01R FOG     WCI  26
$$

VAZ002-007-008-TNZ017-027-036-066-071-051200
...SOUTHWEST VIRGINIA/EAST TENNESSEE...

CITY           SKY/WX    TMP DP  RH WIND       PRES   REMARKS
WISE*          LGT SNOW  30  30 100 N7        30.01R WCI  23
JONESVILLE*    LGT RAIN  34  34 100 CALM      30.03F
ABINGDON*      RAIN      36  35  96 NW5       30.00R WCI  32
BRISTOL        HVY RAIN  35  33  92 N3        30.03R FOG
KNOXVILLE      HVY RAIN  36  34  92 N8        30.00F FOG     WCI  30
OAK RIDGE      LGT RAIN  37  34  89 N5        30.04R WCI  33
CROSSVILLE     FRZ RAIN  31  28  89 N14       30.01R WCI  21
NASHVILLE      LGT SNOW  21  19  93 N13G21    30.21R FOG     WCI   9
$$

...KEY TO REMARKS...
VSB - VISIBILITY IN MILES
WCI - WIND CHILL INDEX
HX  - HEAT INDEX

$$


USA.gov is the U.S. government's official web portal to all federal, state and local government web resources and services.